Phnom Penh, Cambodia

7:52 PM +07 on April 22, 2018 (GMT +0700)
Pochentong International

Weather History for VDPP - August, 2014

Change the Weather History Date:

Wednesday, August 13, 2014

  Actual Average Record
Temperature  
Mean Temperature 88 °F -  
Max Temperature 98 °F 87 °F 98 °F (2014)
Min Temperature 78 °F 77 °F 73 °F (2002)
Cooling Degree Days 23    
Growing Degree Days 38 (Base 50)    
Moisture  
Dew Point 74 °F    
Average Humidity 68    
Maximum Humidity 89    
Minimum Humidity 42    
Precipitation  
Precipitation 0.00 in - - ()
Sea Level Pressure  
Sea Level Pressure 29.71 in    
Wind  
Wind Speed 6 mph ()    
Max Wind Speed 13 mph    
Max Gust Speed 17 mph    
Visibility 5.7 miles    
Events Rain , Thunderstorm    
Averages and records for this station are not official NWS values.
T = Trace of Precipitation, MM = Missing Value Source: Averaged Metar Reports

Daily Weather History Graph

Daily Weather History Graph

Search for Another Location

Airport or City:

Astronomy

Aug. 13, 2014 Rise Set
Actual Time 5:49 AM +07 6:21 PM +07
Civil Twilight 5:27 AM +07 6:43 PM +07
Nautical Twilight 5:02 AM +07 7:08 PM +07
Astronomical Twilight 4:36 AM +07 7:34 PM +07
Moon 8:29 PM +07 (8/13) 8:02 AM +07 (8/13)
Length of Visible Light 13h 15m
Length of Day
12h 31m
Waning Gibbous, 91% of the Moon is Illuminated
Aug 13
Waning Gibbous
Aug 17
Last Quarter
Aug 25
New
Sep 2
First Quarter
Sep 9
Full

Hourly Weather History & Observations

Time (+07) Temp. Heat Index Dew Point Humidity Pressure Visibility Wind Dir Wind Speed Gust Speed Precip Events Conditions
12:30 AM 82.4 °F 88.2 °F 73.4 °F 74% 29.71 in 5.6 mi WSW 5.8 mph - N/A   Unknown
1:00 AM 82.4 °F 88.2 °F 73.4 °F 74% 29.71 in 5.6 mi WSW 8.1 mph - N/A   Unknown
6:00 AM 78.8 °F - 71.6 °F 78% 29.71 in 5.6 mi South 4.6 mph - N/A   Partly Cloudy
7:00 AM 80.6 °F 86.2 °F 75.2 °F 84% 29.74 in 6.2 mi SSW 5.8 mph - N/A   Partly Cloudy
7:30 AM 82.4 °F 89.5 °F 75.2 °F 79% 29.74 in 6.2 mi SW 5.8 mph - N/A   Partly Cloudy
8:00 AM 84.2 °F 92.3 °F 75.2 °F 74% 29.74 in 6.2 mi SW 8.1 mph - N/A   Partly Cloudy
8:30 AM 86.0 °F 95.1 °F 75.2 °F 70% 29.74 in 6.2 mi SW 6.9 mph - N/A   Partly Cloudy
9:00 AM 89.6 °F 99.8 °F 75.2 °F 62% 29.74 in 6.2 mi WSW 10.4 mph - N/A   Partly Cloudy
9:30 AM 89.6 °F 98.2 °F 73.4 °F 59% 29.74 in 6.2 mi SW 10.4 mph - N/A   Scattered Clouds
10:00 AM 91.4 °F 100.1 °F 73.4 °F 55% 29.74 in 6.2 mi SW 9.2 mph - N/A   Scattered Clouds
10:30 AM 91.4 °F 102.5 °F 75.2 °F 59% 29.74 in 6.2 mi West 9.2 mph - N/A   Scattered Clouds
11:00 AM 93.2 °F 102.4 °F 73.4 °F 52% 29.74 in 6.2 mi West 9.2 mph - N/A   Scattered Clouds
12:00 PM 95.0 °F 104.5 °F 73.4 °F 49% 29.71 in 6.2 mi North - - N/A   Mostly Cloudy
12:30 PM 96.8 °F 105.1 °F 71.6 °F 44% 29.71 in 6.2 mi SW 6.9 mph - N/A   Mostly Cloudy
1:00 PM 96.8 °F 105.1 °F 71.6 °F 44% 29.68 in 6.2 mi SSW 6.9 mph - N/A   Mostly Cloudy
1:30 PM 96.8 °F 105.1 °F 71.6 °F 44% 29.68 in 6.2 mi Variable 3.5 mph - N/A   Mostly Cloudy
2:00 PM 98.6 °F 107.7 °F 71.6 °F 42% 29.68 in 6.2 mi SW 10.4 mph - N/A   Mostly Cloudy
2:30 PM 96.8 °F 105.1 °F 71.6 °F 44% 29.65 in 6.2 mi WSW 3.5 mph 17.3 mph N/A   Mostly Cloudy
3:00 PM 95.0 °F 107.4 °F 75.2 °F 53% 29.65 in 6.2 mi South 9.2 mph - N/A   Partly Cloudy
3:30 PM 93.2 °F 100.5 °F 71.6 °F 49% 29.65 in 6.2 mi SSE 12.7 mph - N/A   Partly Cloudy
4:00 PM 89.6 °F 99.8 °F 75.2 °F 62% 29.65 in 5.6 mi Variable 5.8 mph - N/A Rain Rain
4:30 PM 89.6 °F 99.8 °F 75.2 °F 62% 29.65 in 3.1 mi NNE 8.1 mph - N/A Rain Rain
5:00 PM 86.0 °F 95.1 °F 75.2 °F 70% 29.68 in 3.7 mi Variable 3.5 mph - N/A Rain Light Rain
5:30 PM 80.6 °F 86.2 °F 75.2 °F 84% 29.71 in 3.7 mi Variable 3.5 mph - N/A Rain , Thunderstorm Light Thunderstorms and Rain
6:00 PM 80.6 °F 86.2 °F 75.2 °F 84% 29.71 in 4.3 mi NE 5.8 mph - N/A Rain , Thunderstorm Light Thunderstorms and Rain
6:30 PM 80.6 °F 86.2 °F 75.2 °F 84% 29.71 in 5.0 mi ENE 8.1 mph - N/A Rain Light Rain
7:00 PM 80.6 °F 86.2 °F 75.2 °F 84% 29.71 in 5.6 mi East 5.8 mph - N/A   Mostly Cloudy
8:30 PM 80.6 °F 87.1 °F 77.0 °F 89% 29.74 in 5.6 mi Variable 2.3 mph - N/A   Mostly Cloudy
10:00 PM 80.6 °F 87.1 °F 77.0 °F 89% 29.77 in 5.6 mi Variable 1.2 mph - N/A   Mostly Cloudy
10:30 PM 80.6 °F 87.1 °F 77.0 °F 89% 29.77 in 5.6 mi SSW 2.3 mph - N/A   Mostly Cloudy
11:00 PM 80.6 °F 87.1 °F 77.0 °F 89% 29.77 in 5.6 mi SW 3.5 mph - N/A   Mostly Cloudy
11:30 PM 80.6 °F 87.1 °F 77.0 °F 89% 29.77 in 5.6 mi SSW 2.3 mph - N/A   Mostly Cloudy